User: anonymous   Login
Location: USNO
(38.9242°N, 77.0663°W)
Time: 14:48:17
(UTC-05:00)
Language:

Envisat - Orbit

View from above orbital plane
View from above orbital plane
View from above satellite
View from above satellite

Ground track
Ground track

The orbit data is extracted from the following two-line orbital elements,

1 27386U 02009A   17346.45720079 -.00000008  00000-0  11172-4 0  9997
2 27386  98.2095  24.0814 0001509  83.6754 276.4606 14.37910697826697
Epoch (UTC): 12 December 2017 10:58:22
Eccentricity: 0.0001509
inclination: 98.2095°
perigee height: 764 km
apogee height: 766 km
right ascension of ascending node: 24.0814°
argument of perigee: 83.6754°
revolutions per day: 14.37910697
mean anomaly at epoch: 276.4606°
orbit number at epoch: 82669

The dashed part of the orbit path shows where the satellite is in the earth's shadow,  

DLR